EW2270 Weather Reports


Display with metric or nautical units.
time (UTC)temp
F
wind
direction
speed
MPH
gust
MPH
rain 1hr
in
rain 24hr
in
rain mn
in
humidity
%
barometer
mb
20260901160115 65 25 1.0 4.0 0.00 0.00 0.00 42 1006.1
20260901154558 64 349 2.0 3.0 0.00 0.00 0.00 44 1006.1
20260901153110 62 118 0.0 4.0 0.00 0.00 0.00 47 1006.3
20260901151558 57 102 2.0 3.0 0.00 0.00 0.00 53 1006.5
20260901150051 56 257 0.0 0.0 0.00 0.00 0.00 55 1006.6
20260901144550 54 257 0.0 3.0 0.00 0.00 0.00 58 1006.3
20260901143102 54 133 0.0 1.0 0.00 0.00 0.00 56 1006.0
20260901141547 54 133 0.0 1.0 0.00 0.00 0.00 57 1005.9
20260901140050 53 133 0.0 1.0 0.00 0.00 0.00 57 1005.8
20260901134545 52 139 0.0 3.0 0.00 0.00 0.00 56 1005.5
20260901133044 52 238 0.0 3.0 0.00 0.00 0.00 56 1005.5
20260901131545 54 141 0.0 2.0 0.00 0.00 0.00 56 1005.5
20260901130041 54 141 0.0 1.0 0.00 0.00 0.00 56 1005.2
20260901124540 53 141 0.0 0.0 0.00 0.00 0.00 56 1005.4
20260901123047 52 141 0.0 0.0 0.00 0.00 0.00 58 1005.2
20260901121543 53 141 0.0 1.0 0.00 0.00 0.00 56 1005.2
20260901120046 53 141 0.0 1.0 0.00 0.00 0.00 56 1005.3
20260901114541 54 141 0.0 1.0 0.00 0.00 0.00 55 1005.2
20260901113036 55 141 0.0 1.0 0.00 0.00 0.00 55 1005.2
20260901111531 55 141 0.0 2.0 0.00 0.00 0.00 55 1005.2
20260901110026 58 141 0.0 2.0 0.00 0.00 0.00 50 1005.2
20260901104525 58 141 0.0 0.0 0.00 0.00 0.00 48 1005.4
20260901103023 58 141 0.0 0.0 0.00 0.00 0.00 49 1005.6
20260901101523 58 141 0.0 1.0 0.00 0.00 0.00 50 1005.7
20260901100021 57 142 0.0 1.0 0.00 0.00 0.00 50 1005.7
20260901094520 59 142 0.0 4.0 0.00 0.00 0.00 48 1005.8
20260901093021 59 165 1.0 4.0 0.00 0.00 0.00 49 1005.9
20260901091519 59 156 3.0 6.0 0.00 0.00 0.00 47 1006.0
20260901090017 58 134 2.0 5.0 0.00 0.00 0.00 47 1005.9
20260901084513 60 141 2.0 4.0 0.00 0.00 0.00 45 1006.1
20260901083013 59 133 2.0 4.0 0.00 0.00 0.00 44 1006.1
20260901081511 60 162 3.0 5.0 0.00 0.00 0.00 42 1006.1
20260901080110 60 155 2.0 4.0 0.00 0.00 0.00 43 1006.0
20260901074508 60 153 2.0 5.0 0.00 0.00 0.00 42 1005.9
20260901073009 61 165 1.0 7.0 0.00 0.00 0.00 40 1005.9
20260901071505 61 199 4.0 6.0 0.00 0.00 0.00 40 1005.8
20260901070001 62 132 1.0 5.0 0.00 0.00 0.00 40 1005.7
20260901064601 62 149 3.0 5.0 0.00 0.00 0.00 39 1005.8
20260901063110 62 145 1.0 4.0 0.00 0.00 0.00 40 1005.7
20260901061627 62 184 2.0 5.0 0.00 0.00 0.00 39 1005.6
20260901060101 63 155 2.0 6.0 0.00 0.00 0.00 38 1005.8
20260901054559 63 150 4.0 6.0 0.00 0.00 0.00 38 1005.8
20260901053109 63 148 1.0 5.0 0.00 0.00 0.00 38 1006.0
20260901051558 63 160 4.0 5.0 0.00 0.00 0.00 37 1006.0
20260901050057 63 134 2.0 6.0 0.00 0.00 0.00 36 1006.0
20260901044602 63 136 4.0 7.0 0.00 0.00 0.00 36 1006.0
20260901043059 65 134 5.0 7.0 0.00 0.00 0.00 35 1005.9
20260901041556 64 143 4.0 6.0 0.00 0.00 0.00 35 1005.9
20260901040055 66 132 2.0 4.0 0.00 0.00 0.00 32 1005.9
20260901034555 69 158 0.0 2.0 0.00 0.00 0.00 31 1005.8
20260901033053 69 131 0.0 2.0 0.00 0.00 0.00 31 1005.7
20260901031558 71 240 0.0 1.0 0.00 0.00 0.00 29 1005.5
20260901030053 73 240 0.0 0.0 0.00 0.00 0.00 28 1005.4
20260901024554 74 94 1.0 3.0 0.00 0.00 0.00 27 1005.3
20260901023051 76 339 1.0 3.0 0.00 0.00 0.00 25 1005.4
20260901021551 79 6 2.0 6.0 0.00 0.00 0.00 23 1005.5
20260901020106 81 17 4.0 9.0 0.00 0.00 0.00 22 1005.6
20260901014546 82 18 6.0 10.0 0.00 0.00 0.00 21 1005.7
20260901013045 83 28 9.0 13.0 0.00 0.00 0.00 20 1005.8
20260901011548 84 13 8.0 14.0 0.00 0.00 0.00 20 1005.8
20260901010043 84 23 9.0 15.0 0.00 0.00 0.00 19 1006.0
20260901004555 84 28 9.0 14.0 0.00 0.00 0.00 19 1006.1
20260901003042 84 352 9.0 14.0 0.00 0.00 0.00 19 1006.3
20260901001539 84 37 10.0 16.0 0.00 0.00 0.00 20 1006.5
20260901000055 84 41 11.0 17.0 0.00 0.00 0.00 20 1006.8
20260831234536 84 29 9.0 16.0 0.00 0.00 0.00 20 1006.8
20260831233034 84 21 11.0 17.0 0.00 0.00 0.00 20 1006.9
20260831231534 84 23 11.0 15.0 0.00 0.00 0.00 20 1007.1
20260831230035 84 12 9.0 17.0 0.00 0.00 0.00 21 1007.3
20260831224526 84 29 8.0 15.0 0.00 0.00 0.00 21 1007.6
20260831223024 83 15 13.0 17.0 0.00 0.00 0.00 22 1007.7
20260831221521 83 15 11.0 16.0 0.00 0.00 0.00 23 1008.0
20260831220017 82 34 14.0 19.0 0.00 0.00 0.00 23 1008.2
20260831214515 82 37 10.0 20.0 0.00 0.00 0.00 24 1008.5
20260831213012 81 356 10.0 15.0 0.00 0.00 0.00 24 1008.8
20260831211509 81 51 10.0 17.0 0.00 0.00 0.00 24 1009.1
20260831210006 80 22 8.0 16.0 0.00 0.00 0.00 24 1009.3
20260831204504 80 45 9.0 16.0 0.00 0.00 0.00 24 1009.5
20260831203001 79 77 10.0 18.0 0.00 0.00 0.00 25 1009.7
20260831201600 80 44 10.0 16.0 0.00 0.00 0.00 24 1010.0
20260831200058 79 17 7.0 16.0 0.00 0.00 0.00 25 1010.3
20260831194632 79 49 8.0 14.0 0.00 0.00 0.00 25 1010.5
20260831193053 79 49 8.0 13.0 0.00 0.00 0.00 26 1010.5
20260831191548 78 316 3.0 11.0 0.00 0.00 0.00 26 1010.9
20260831190059 77 30 6.0 10.0 0.00 0.00 0.00 27 1011.3
20260831184541 76 322 2.0 8.0 0.00 0.00 0.00 27 1011.6
20260831183037 75 39 3.0 8.0 0.00 0.00 0.00 28 1011.9
20260831181538 73 266 0.0 6.0 0.00 0.00 0.00 30 1012.1
20260831180028 72 16 3.0 8.0 0.00 0.00 0.00 30 1012.3
20260831174528 71 15 3.0 5.0 0.00 0.00 0.00 32 1012.6
20260831173022 70 29 3.0 6.0 0.00 0.00 0.00 32 1012.7
20260831171518 69 306 2.0 5.0 0.00 0.00 0.00 34 1012.9
20260831170013 66 219 1.0 4.0 0.00 0.00 0.00 37 1012.9
20260831164513 65 305 0.0 4.0 0.00 0.00 0.00 39 1013.0
20260831163007 64 319 2.0 4.0 0.00 0.00 0.00 40 1013.1
20260831161503 62 43 0.0 4.0 0.00 0.00 0.00 44 1013.4